Theta_e
324 323 324 325 326 327 327 327 327 323 322 325 323 322 324 326 324 320 310 315 317 326 318 311 311 310 311 308 307 307 303 299 299 299 300 303 304 304 306 307 311 314 312 321 332
323 323 324 324 324 326 327 327 327 327 326 324 324 325 325 324 316 310 320 326 326 326 309 308 307 309 307 306 306 306 302 302 303 303 302 304 305 305 305 305 306 309 314 327 331
323 323 323 323 324 324 326 326 326 326 326 325 324 325 325 322 309 306 326 328 329 324 311 309 310 308 305 305 304 302 301 302 300 302 304 304 303 304 304 302 306 307 311 325 329
322 322 322 322 323 324 325 325 325 325 325 325 325 324 322 317 293 309 327 330 328 314 308 307 306 304 303 302 303 300 299 301 302 302 302 303 304 303 304 305 305 308 312 324 327
321 320 321 322 323 323 324 324 324 323 324 324 324 323 317 306 307 314 325 326 316 309 307 306 302 304 301 302 302 301 299 301 301 301 301 302 301 302 302 305 304 305 312 320 326
321 319 320 321 322 323 324 323 322 322 323 323 323 323 312 298 312 314 315 310 310 308 306 306 305 305 300 301 301 300 301 300 300 300 300 301 300 301 302 302 303 305 310 317 324
320 319 319 320 321 322 323 322 322 322 322 323 324 317 308 303 311 312 310 309 309 307 304 305 306 304 303 299 300 300 298 299 299 300 299 300 297 298 302 301 302 303 307 312 320
319 318 318 319 320 321 321 321 321 321 322 323 323 314 302 312 311 308 309 308 309 308 307 306 306 303 303 301 299 296 298 295 295 298 299 297 295 296 300 300 301 303 305 305 311
318 318 318 319 319 320 320 320 320 321 321 322 313 306 300 313 305 309 309 306 306 307 306 304 305 301 299 298 295 294 292 292 291 297 298 296 296 297 300 300 301 302 303 303 304
318 317 318 318 318 319 319 320 319 320 318 315 306 301 303 303 306 307 308 307 305 305 304 303 302 296 295 296 289 289 290 289 291 295 295 295 295 298 300 299 302 303 304 304 304
317 317 318 318 318 319 319 315 303 300 306 299 299 299 301 306 307 304 306 304 304 303 298 298 297 293 296 297 294 295 291 291 292 294 294 294 295 298 301 300 302 303 304 304 304
317 317 317 318 318 319 317 302 302 303 296 300 299 303 306 305 299 302 306 301 300 295 296 296 293 297 294 292 292 292 291 291 293 294 294 293 295 298 299 299 300 301 302 302 301
316 317 317 317 318 316 310 304 310 307 295 296 300 302 303 304 298 300 302 299 297 294 294 293 293 294 293 292 291 291 292 290 292 292 292 291 292 293 293 295 296 298 298 299 300
316 316 316 317 312 312 309 314 313 309 289 290 294 299 303 302 297 303 302 300 295 293 293 293 292 293 293 291 294 289 293 293 291 292 289 291 287 293 293 294 297 299 300 300 301
314 316 316 317 312 307 312 315 313 304 279 292 293 302 302 298 298 299 303 299 294 292 293 290 290 291 291 292 293 291 293 292 292 292 290 289 288 292 291 293 296 297 299 301 301
309 312 316 315 316 314 316 314 308 289 280 289 294 294 294 296 296 298 299 300 298 294 295 292 294 294 293 292 293 293 293 292 292 291 285 288 288 289 291 292 294 296 299 300 301
307 309 313 314 310 315 315 309 289 283 291 287 289 293 294 292 293 295 294 293 291 288 288 291 291 294 295 291 293 293 292 285 284 284 283 284 285 291 291 292 294 296 299 300 301
305 305 308 309 311 315 310 297 283 287 287 292 291 293 290 292 292 292 292 290 293 292 289 287 284 292 294 293 291 292 291 286 280 279 283 283 284 291 292 293 294 298 299 300 300
303 301 303 305 310 313 302 286 286 288 292 289 291 288 288 290 292 292 292 291 294 293 289 287 285 292 292 293 294 290 287 290 283 277 284 286 288 292 293 294 295 297 299 299 300
297 297 299 304 309 308 297 289 290 292 293 292 286 289 286 288 289 290 290 294 293 293 294 291 285 289 291 294 293 292 291 286 286 281 280 282 283 289 291 292 295 296 297 298 299
296 291 298 302 307 301 289 291 293 297 294 291 288 287 288 288 290 289 290 291 295 292 293 292 291 287 290 289 289 288 287 287 288 286 283 281 285 291 294 296 296 297 298 299 299
292 287 297 303 293 291 292 294 296 296 298 296 293 290 289 289 288 288 288 292 295 294 290 292 289 285 287 290 291 289 289 290 286 282 283 283 286 291 295 298 298 297 297 298 300
287 289 298 300 285 285 290 294 296 295 295 295 293 293 291 289 286 289 290 293 293 293 291 292 289 283 284 288 289 288 289 289 288 288 283 285 287 291 294 295 297 297 297 297 298
288 284 289 290 287 288 287 291 292 297 296 297 295 296 291 288 291 288 289 292 293 294 296 295 288 288 284 287 290 286 287 287 289 285 285 285 287 290 292 294 295 296 297 298 298
288 284 286 285 286 286 290 289 291 291 296 297 294 294 292 288 289 287 291 292 294 295 293 293 287 287 288 288 289 289 288 287 287 290 286 289 288 292 294 295 296 297 297 296 295
286 284 286 284 286 287 287 286 288 293 294 293 293 295 295 291 291 289 291 292 291 293 292 292 287 288 286 288 288 286 289 288 289 290 289 288 289 295 298 298 296 295 296 295 295
289 290 288 284 284 286 287 288 289 291 293 296 296 295 294 293 296 296 297 297 296 292 290 290 287 286 284 287 288 284 287 288 290 292 290 286 291 293 294 293 296 296 296 296 294
Wind_Speed
17 13 11 13 14 13 13 21 20 18 18 17 16 12 11 5 6 2 5 8 7 9 5 8 4 5 3 4 2 1 4 5 7 7 7 7 6 2 1 6 3 5 1 4 15
17 15 13 12 13 14 12 13 15 18 17 16 14 18 12 9 2 13 12 10 9 11 8 12 9 9 4 4 3 5 4 7 4 4 6 10 5 9 6 5 5 6 5 8 15
17 15 14 11 11 11 12 11 11 11 11 15 17 13 12 11 12 12 13 13 11 10 5 2 11 6 4 3 4 3 4 6 4 2 5 10 5 4 5 5 6 9 12 13 15
19 18 14 14 14 13 14 13 11 11 11 12 14 13 9 9 10 1 7 12 11 6 7 7 6 7 5 9 3 5 2 2 6 5 6 10 8 4 5 3 4 1 9 14 17
19 19 16 13 14 15 13 13 13 12 12 12 13 13 8 5 8 3 4 8 9 9 12 10 7 6 8 7 6 3 5 4 5 6 6 7 5 1 6 5 2 4 8 14 16
20 20 16 14 15 14 13 14 14 14 14 15 14 12 4 13 2 5 8 6 8 9 8 8 11 4 6 5 3 4 7 6 2 5 3 4 3 3 3 2 5 6 7 11 14
20 18 17 16 14 14 14 14 14 14 13 14 15 6 5 13 4 7 7 5 4 3 8 4 5 4 9 7 4 8 7 3 2 1 3 1 4 7 3 0 4 8 6 7 11
21 19 18 16 15 14 13 12 11 12 11 11 11 5 5 1 5 7 5 4 3 2 3 5 5 7 2 8 4 5 3 6 2 1 2 3 6 1 2 7 6 5 7 7 9
21 20 19 17 16 14 13 12 10 9 11 10 7 4 4 6 5 5 4 8 6 4 5 4 5 4 5 11 6 1 7 7 2 0 1 5 4 1 1 1 4 5 5 7 7
21 22 21 18 16 14 13 12 8 8 6 4 1 3 4 6 5 6 3 8 4 9 8 2 4 4 4 10 14 8 7 3 5 5 2 4 11 5 4 5 4 5 6 8 8
23 23 21 20 17 16 16 9 8 4 6 5 9 2 5 4 2 2 5 7 6 8 9 2 9 14 15 10 3 10 7 7 2 1 3 6 11 11 7 7 10 9 9 7 8
24 23 21 20 17 17 10 6 8 5 8 2 4 3 2 3 6 4 6 7 9 15 6 7 13 8 11 7 8 9 9 5 3 2 3 1 11 11 7 5 7 8 7 7 4
23 23 22 19 16 10 9 5 3 1 5 2 3 4 5 3 3 12 8 6 10 11 10 14 3 12 8 8 10 3 9 6 4 4 2 4 7 4 2 1 2 3 4 2 3
22 22 22 21 11 9 8 3 3 1 4 6 5 3 4 4 4 2 2 3 3 11 8 4 4 12 12 8 7 5 4 8 11 7 4 2 3 3 2 3 3 2 4 4 4
14 20 23 19 11 10 5 7 4 2 8 10 3 0 3 4 7 3 2 1 11 8 6 7 11 11 9 8 6 4 6 7 4 5 2 3 5 3 1 5 6 4 3 4 4
15 9 21 3 4 7 8 8 1 3 7 7 5 7 7 3 2 4 2 4 4 6 6 4 2 2 3 6 1 14 10 7 4 2 3 2 4 4 4 4 5 4 4 4 4
14 10 9 3 6 7 7 4 5 6 5 9 7 8 13 6 4 9 13 9 8 10 11 3 2 1 3 12 5 3 14 4 3 4 4 2 4 6 3 3 1 2 5 6 6
11 9 4 3 1 8 4 5 7 7 10 3 7 14 13 9 1 6 13 12 4 5 9 10 6 10 6 5 11 15 7 7 8 6 4 1 8 4 1 3 3 5 7 8 10
7 3 3 4 1 3 9 12 11 9 10 10 10 15 6 4 6 10 16 17 13 10 9 10 4 2 1 2 5 8 7 4 9 2 2 4 5 8 2 5 6 10 11 11 11
2 2 3 8 3 3 9 14 6 4 10 13 8 7 14 17 11 13 18 13 9 9 3 8 7 2 2 1 4 4 11 4 1 6 5 5 5 5 8 11 11 13 13 11 10
3 3 5 10 2 6 16 12 4 2 3 6 6 8 7 13 13 13 18 3 13 11 1 6 4 2 2 7 11 5 6 2 4 2 5 5 6 3 12 15 17 15 13 12 11
3 3 4 4 5 4 12 10 4 6 1 3 4 6 10 12 13 9 14 10 11 15 11 2 6 6 7 1 2 2 5 9 6 6 0 1 3 1 8 15 16 14 11 11 10
1 2 1 2 6 4 3 9 4 5 5 4 4 2 2 9 8 6 6 1 8 13 17 9 4 6 2 3 1 6 5 5 3 3 8 6 4 3 8 14 13 14 11 11 11
2 2 2 2 2 2 4 17 11 1 4 3 5 4 6 4 3 12 8 1 4 6 6 8 2 7 13 13 9 10 10 9 11 5 6 9 6 9 12 16 15 14 13 12 10
2 1 2 3 3 1 3 3 20 9 0 3 2 4 7 6 7 4 6 4 2 4 4 6 11 6 3 2 7 8 14 16 17 21 13 17 14 19 21 22 20 15 14 13 12
3 3 2 2 1 10 3 6 9 14 9 6 3 7 4 7 7 11 9 6 7 3 8 2 5 8 4 3 3 4 12 20 23 20 15 6 13 7 19 13 14 16 17 16 14
1 2 0 2 1 5 5 4 6 7 2 4 9 6 7 4 4 3 1 8 11 13 12 9 7 5 7 5 5 4 21 20 17 17 19 16 14 8 15 18 19 18 18 17 15
Wind_Direction
188 190 201 185 173 178 183 180 185 169 174 200 194 219 251 282 322 279 252 230 208 187 166 135 108 120 118 108 105 177 197 187 173 176 135 155 169 153 91 138 174 158 109 94 134
185 190 191 189 176 171 185 178 174 182 189 183 215 216 203 181 241 257 237 232 216 181 143 159 150 151 134 129 139 217 219 184 170 162 147 164 184 148 178 159 172 162 124 138 151
181 179 182 189 183 178 179 171 164 159 176 173 211 209 183 151 217 244 197 192 191 191 171 102 145 148 156 155 166 167 206 156 158 152 159 148 153 145 163 196 209 191 169 165 170
181 176 177 183 182 190 176 163 155 158 172 186 189 194 170 217 210 209 310 181 175 185 137 130 151 149 159 161 167 161 87 143 140 152 145 153 125 173 216 67 52 176 164 170 182
176 172 175 176 177 185 172 157 152 169 173 186 181 183 164 194 245 151 123 150 154 184 170 157 164 158 166 150 142 133 141 94 116 132 102 136 140 163 231 202 144 87 165 185 196
177 170 166 173 177 175 169 161 167 175 172 180 178 192 139 214 153 155 154 152 185 184 166 162 185 173 99 145 201 113 121 122 129 115 97 170 143 244 130 151 195 179 189 195 201
178 169 161 177 169 164 164 165 171 176 176 174 166 194 212 216 176 157 168 185 176 177 161 194 149 181 135 121 134 127 109 132 89 108 93 333 221 220 123 91 161 190 194 204 204
178 167 161 175 161 159 155 159 168 170 169 164 165 222 229 129 150 144 171 129 151 105 124 126 106 97 73 120 79 107 137 181 119 196 80 229 247 155 13 218 214 196 205 211 209
172 161 161 161 155 150 147 149 158 170 155 154 137 238 221 146 173 161 171 154 126 100 68 92 75 86 134 146 136 159 186 202 180 301 179 216 253 160 170 226 190 194 205 231 229
166 161 156 158 147 147 150 142 154 139 124 142 256 211 177 206 151 145 139 141 130 136 122 130 113 113 154 185 193 164 170 176 196 168 219 208 253 235 228 272 249 258 234 231 241
165 156 152 154 152 157 144 137 144 162 205 187 178 247 138 122 104 139 152 119 132 171 167 122 187 190 178 193 144 156 137 157 126 70 227 234 268 262 264 270 251 252 263 263 269
159 152 153 148 159 166 169 189 175 142 158 213 133 108 148 198 123 156 168 151 165 167 149 159 205 172 116 116 125 144 149 142 101 68 236 275 266 264 267 252 283 291 280 287 290
157 150 147 146 157 162 193 214 134 189 132 200 179 168 161 162 118 169 177 135 162 165 183 181 142 146 141 142 134 131 172 166 144 138 83 294 266 238 108 216 313 336 301 328 345
153 147 143 149 152 160 204 207 152 192 126 170 204 176 126 129 90 350 287 146 130 169 142 147 134 162 149 165 173 171 157 133 135 159 207 343 262 264 141 132 105 81 65 64 43
97 154 158 161 138 175 164 147 152 244 169 152 174 284 96 149 121 191 338 82 150 146 183 151 166 156 171 177 177 141 127 117 124 107 174 184 262 235 163 166 140 106 74 69 49
56 91 170 101 126 161 148 125 118 95 206 158 146 163 121 73 90 115 152 48 102 98 58 91 47 158 126 74 48 142 109 72 72 87 237 139 253 231 183 169 152 120 98 68 68
35 50 164 115 150 155 143 122 127 192 150 171 170 169 160 135 129 185 175 165 158 142 170 116 116 93 147 95 136 192 156 134 178 191 233 29 213 272 156 124 95 127 104 99 101
18 28 51 64 99 142 138 166 192 163 185 128 148 138 166 144 156 161 167 188 243 107 149 160 191 182 167 173 173 183 198 167 180 189 156 100 220 242 96 357 179 114 115 119 109
349 17 36 28 295 142 169 194 199 184 137 135 129 149 154 173 146 175 194 195 188 193 159 168 152 61 48 142 177 173 201 94 105 61 173 203 247 258 117 138 150 138 138 130 119
24 26 65 326 338 147 189 207 184 161 124 157 148 188 172 178 162 194 178 197 196 198 265 186 127 20 89 149 50 222 140 129 87 152 211 199 271 224 181 170 161 153 146 134 123
73 81 337 313 187 179 199 189 163 206 143 150 146 141 176 173 187 184 188 154 186 176 231 144 93 112 151 216 175 144 179 114 121 201 186 172 230 216 186 168 164 156 147 142 133
78 132 291 291 169 195 206 187 127 158 288 106 94 102 165 159 176 178 191 217 171 155 171 175 109 140 186 6 321 339 190 181 190 188 5 13 240 111 185 163 159 153 148 141 132
61 60 343 14 188 154 220 187 174 152 174 158 116 165 162 158 159 205 184 159 156 166 168 183 151 110 126 226 159 224 178 208 108 93 188 172 209 43 150 157 163 159 160 152 140
141 152 69 44 16 163 153 199 190 12 145 135 113 112 122 146 31 180 159 179 202 177 124 119 102 194 196 203 138 195 189 195 199 197 173 232 155 172 180 176 177 174 166 161 153
41 109 5 160 196 153 186 181 189 177 107 210 124 201 156 147 175 155 141 127 63 180 129 158 193 194 203 166 172 207 183 181 202 221 198 230 214 185 188 186 184 170 163 160 161
134 159 120 100 25 180 252 186 202 199 159 207 195 168 118 159 189 176 153 175 168 169 167 168 171 169 180 166 184 194 198 194 208 216 241 235 222 200 186 174 171 175 171 171 167
100 25 181 119 211 172 185 198 174 136 342 281 174 137 142 111 76 360 246 166 160 158 179 157 136 142 210 127 121 287 213 197 216 214 216 213 215 163 169 188 189 180 179 172 163